TimePDT,TemperatureF,Dew PointF,Humidity,Sea Level PressureIn,VisibilityMPH,Wind Direction,Wind SpeedMPH,Gust SpeedMPH,PrecipitationIn,Events,Conditions,WindDirDegrees,DateUTC
12:53 AM,30.9,23.0,72,30.32,10.0,ESE,3.5,-,N/A,,Clear,110,2013-03-24 07:53:00
1:53 AM,30.0,23.0,75,30.33,10.0,Calm,Calm,-,N/A,,Clear,0,2013-03-24 08:53:00
2:53 AM,28.9,23.0,78,30.34,10.0,East,3.5,-,N/A,,Clear,100,2013-03-24 09:53:00
3:53 AM,27.0,21.9,81,30.33,10.0,Calm,Calm,-,N/A,,Clear,0,2013-03-24 10:53:00
4:53 AM,27.0,21.9,81,30.34,10.0,Calm,Calm,-,N/A,,Clear,0,2013-03-24 11:53:00
5:53 AM,27.0,21.9,81,30.34,10.0,ESE,4.6,-,N/A,,Clear,110,2013-03-24 12:53:00
6:53 AM,26.1,21.9,84,30.35,10.0,East,3.5,-,N/A,,Clear,90,2013-03-24 13:53:00
7:53 AM,28.0,23.0,81,30.35,10.0,Calm,Calm,-,N/A,,Clear,0,2013-03-24 14:53:00
8:53 AM,30.9,26.1,82,30.36,10.0,Calm,Calm,-,N/A,,Clear,0,2013-03-24 15:53:00
9:53 AM,35.1,27.0,72,30.36,10.0,Calm,Calm,-,N/A,,Clear,0,2013-03-24 16:53:00
10:53 AM,37.9,27.0,65,30.34,10.0,Calm,Calm,-,N/A,,Partly Cloudy,0,2013-03-24 17:53:00
11:53 AM,43.0,28.0,56,30.32,10.0,Calm,Calm,-,N/A,,Mostly Cloudy,0,2013-03-24 18:53:00
12:53 PM,46.9,28.9,50,30.30,10.0,Variable,3.5,-,N/A,,Overcast,0,2013-03-24 19:53:00
1:53 PM,48.9,28.0,44,30.28,10.0,Calm,Calm,-,N/A,,Mostly Cloudy,0,2013-03-24 20:53:00
2:53 PM,51.1,21.9,32,30.25,10.0,ESE,3.5,-,N/A,,Overcast,110,2013-03-24 21:53:00
3:53 PM,52.0,21.9,31,30.22,10.0,ENE,5.8,-,N/A,,Overcast,70,2013-03-24 22:53:00
4:53 PM,52.0,23.0,32,30.20,10.0,ENE,5.8,-,N/A,,Overcast,60,2013-03-24 23:53:00
5:53 PM,51.1,23.0,33,30.19,10.0,South,5.8,-,N/A,,Overcast,190,2013-03-25 00:53:00
6:53 PM,50.0,25.0,38,30.18,10.0,Calm,Calm,-,N/A,,Overcast,0,2013-03-25 01:53:00
7:53 PM,48.0,28.0,46,30.17,10.0,NE,3.5,-,N/A,,Overcast,50,2013-03-25 02:53:00
8:53 PM,46.0,28.9,51,30.18,10.0,East,4.6,-,N/A,,Overcast,90,2013-03-25 03:53:00
9:53 PM,45.0,27.0,49,30.18,10.0,ESE,4.6,-,N/A,,Overcast,120,2013-03-25 04:53:00
10:53 PM,45.0,27.0,49,30.18,10.0,Calm,Calm,-,N/A,,Overcast,0,2013-03-25 05:53:00
11:53 PM,43.0,30.0,60,30.17,10.0,Calm,Calm,-,N/A,,Overcast,0,2013-03-25 06:53:00